Regional Weather Roundup
Issued by NWS Pendleton, OR

Home | Current Version | Previous Version | Text Only | Print | Product List | Glossary On
Versions: 1 2 3 4 5 6 7 8 9 10 11 12 13 14 15 16 17 18 19 20 21 22 23 24 25 26 27 28 29 30 31 32 33 34 35 36 37 38 39 40 41 42 43 44 45 46 47 48 49 50
000
ASUS46 KPDT 271210
RWRPDT
PENDLETON REGIONAL WEATHER ROUNDUP
NATIONAL WEATHER SERVICE PENDLETON OREGON
500 AM PDT MON APR 27 2015

NOTE: FAIR INDICATES FEW OR NO CLOUDS BELOW 12,000 FEET WITH NO
SIGNIFICANT WEATHER AND/OR OBSTRUCTIONS TO VISIBILITY.

# INDICATES UNOFFICIAL STATION AND DATA

WAZ520-271310-
EAST SLOPES OF WASHINGTON CASCADES

CITY            SKY/WX      TMP DP  RH  WIND    PRES   REMARKS
#BULLFROG 2SW   N/A         43  40  89  CALM    27.85R
#BUMPING DAM    N/A         40  N/A N/A CALM    N/A
#CLE ELUM HS    N/A         45  40  82  CALM    30.20F
#CLE ELUM LAKE  N/A         44  37  76  CALM    30.24F
#CLIFFDEL 2NW   N/A         44  39  82  CALM    N/A
#EASTON DOT     N/A         44  35  70  SE1     N/A
#GLENWOOD       N/A         34  32  92  CALM    30.29S
#MANASTASH CYN  N/A         41  32  70  CALM    30.22F
#NELSON         N/A         45  42  89  CALM    30.28S
#NELSON 3SW     N/A         42  39  89  CALM    30.49F
#NILE           N/A         40  35  82  CALM    29.54S
#PEOH POINT     N/A         43  34  70  SW5     N/A
#RONALD 2NW     N/A         45  23  41  N1      30.12S
#SNOWDEN        N/A         40  32  73  CALM    N/A
#SOUTH BLEWITT  N/A         40  35  82  CALM    N/A
#TEANAWAY 4NE   N/A         43  40  89  CALM    N/A
#TROUT LAKE 1NE N/A         40  39  96  NW1     30.29R
$$

WAZ521-271310-
SIMCOE HIGHLANDS

CITY            SKY/WX      TMP DP  RH  WIND    PRES   REMARKS
#BICKLETON HS   N/A         44  30  58  W3      N/A
#SATUS PASS DOT N/A         40  37  89  CALM    N/A
#CENTERVILLE 4W N/A         46  42  86  CALM    30.01R
#CENTERVILLE 1SWN/A         40  36  85  CALM    30.24R
#GOLDENDALE     N/A         42  38  86  CALM    N/A
#GOLDENDALE 1NE N/A         40  30  67  N2      N/A
#GOODNOE HILLS  N/A         47  42  83  CALM    N/A
#LYLE 6NE       N/A         46  44  93  CALM    30.25R
$$

WAZ026-271310-
KITTITAS VALLEY

CITY            SKY/WX      TMP DP  RH  WIND    PRES   REMARKS
ELLENSBURG AP   MOCLDY      44  33  65  CALM    30.26S
6HR MIN TEMP:   44; 6HR MAX TEMP:   52;

YTC-OPS AREA    MOCLDY      48  28  46  S3      30.24S
6HR MIN TEMP:   46; 6HR MAX TEMP:   50;

#ELLENSBURG CWU N/A         45  34  65  CALM    30.21S
#ELLENSBURG 3NE N/A         41  33  73  E2      30.25R
#KITTITAS 3S    N/A         39  36  89  CALM    30.25S
#THORP 6N       N/A         43  36  76  N1      30.28S
$$

WAZ027-271310-
YAKIMA VALLEY

CITY            SKY/WX      TMP DP  RH  WIND    PRES   REMARKS
SUNNYSIDE AP    PTCLDY      45  36  70  CALM    30.27R
YAKIMA AIRPORT  MOCLDY      45  33  63  W5      30.27R
6HR MIN TEMP:   45; 6HR MAX TEMP:   61;

#DONALD 2NE     N/A         53  20  27  N1      29.10S
#GRANDVIEW      N/A         49  36  61  CALM    30.28R
#MABTON         N/A         48  38  68  CALM    30.26R
#NACHES 2SW     N/A         47  38  71  NW1     30.25S
#TERRACE HTS    N/A         46  33  60  CALM    30.23S
#WAPATO 4NE     N/A         53  20  27  N1      29.10S
#WEST VALLEY    N/A         45  34  65  CALM    30.25S
#W YAKIMA       N/A         49  34  56  NW1     30.26S
#WHITE SWAN 5E  N/A         43  35  73  CALM    30.27S
$$

WAZ028-271310-
LOWER COLUMBIA BASIN...WASHINGTON

CITY            SKY/WX      TMP DP  RH  WIND    PRES   REMARKS
PASCO           MOCLDY      44  35  70  CALM    30.29R
6HR MIN TEMP:   42; 6HR MAX TEMP:   50;

PROSSER AWOS    N/A         52  39  61  NE5     30.29R
RICHLAND AWOS   MOCLDY      48  37  65  E5      30.28R
#BASIN CITY 5SW N/A         43  35  73  E1      30.27S
#BENTON CITY    N/A         53  41  64  NE1     30.17R
#CONNELL 5N     N/A         41  27  57  NE2     30.28S
#CONNELL 5NW    N/A         40  29  64  E1      30.24S
#ELTOPIA        N/A         46  34  63  CALM    30.24R
#ELTOPIA 6NW    N/A         44  33  65  E5      29.23R
#KAHLOTUS       N/A         38  28  67  S10     30.29S
#KENNEWICK      N/A         43  40  89  CALM    27.85R
#KENNEWICK 3S   N/A         52  41  66  CALM    30.27S
#PATERSON       N/A         48  36  63  NE1     30.27R
#PROSSER DOT    N/A         52  39  61  E2      N/A
#PROSSER        N/A         51  38  61  S8      30.25R
#SAGEMOOR 2W    N/A         46  36  68  E3      30.12R
#TOUCHET 2S     N/A         37  35  92  CALM    30.29R
#WEST PASCO     N/A         48  37  65  CALM    30.33R
$$

WAZ029-271310-
FOOTHILLS OF THE BLUES...WASHINGTON

CITY            SKY/WX      TMP DP  RH  WIND    PRES   REMARKS
WALLA WALLA AP  PTCLDY      46  28  49  E7      30.28S
6HR MIN TEMP:   44; 6HR MAX TEMP:   52;

#DAYTON SCHOOL  N/A         42  22  45  N2      30.30S
#LOWDEN 2SE     N/A         38  34  85  E3      30.25S
#PLEASANT VIEW 1N/A         43  27  53  CALM    30.33S
#PRESCOTT       N/A         39  32  76  CALM    30.29S
#SUDBURY        N/A         38  N/A N/A CALM    N/A
#WHITMAN COLLEGEN/A         46  31  56  E2      30.33S
#WAITSBURG 5S   N/A         48  24  39  CALM    30.39S
#WALLA WALLA 5E N/A         40  30  67  NE7     N/A
#WALLA WALLA U  N/A         47  32  56  CALM    30.28S
#WHITMAN MISSIONN/A         38  34  85  CALM    30.30S
$$

WAZ030-271310-
BLUE MOUNTAINS...WASHINGTON

CITY            SKY/WX      TMP DP  RH  WIND    PRES   REMARKS
#DIXIE 5SE      N/A         49  12  22  CALM    30.21S
$$

ORZ009-041-WAZ024-271310-
COLUMBIA RIVER GORGE

CITY            SKY/WX      TMP DP  RH  WIND    PRES   REMARKS
HOOD RIVER AP   PTCLDY      46  45  96  S3      30.28S
THE DALLES AP   PTCLDY      49  43  80  CALM    30.28R
6HR MIN TEMP:   48; 6HR MAX TEMP:   57;

#ARLINGTON AIRPON/A         48  43  83  CALM    32.41R
#ARLINGTON HS   N/A         47  40  76  SW2     30.20R
#CELILO DOT     N/A         53  44  71  SW3     N/A
#MARYHILL       N/A         49  44  83  CALM    N/A
#MOSIER 1S      N/A         48  40  74  CALM    30.27S
#MURDOCK        N/A         53  48  83  NW2     30.30R

$$

ORZ510-271310-
NORTH CENTRAL OREGON

CITY            SKY/WX      TMP DP  RH  WIND    PRES   REMARKS
#CHENOWITH 1W   N/A         45  44  96  NW5     N/A
#COW CYN RST AREN/A         46  46  100 SW2     N/A
#DUFUR 9E       N/A         47  43  86  CALM    30.32S
#GRASS VALLEY 1SN/A         40  38  92  SW1     30.29S
#KENT DOT       N/A         42  36  79  SW2     N/A
#MAUPIN SCHOOL  N/A         48  41  77  CALM    30.30R
#MORO SCHOOL    N/A         41  40  96  SW1     30.28S
#SHANIKO 5WSW   N/A         44  36  73  S8      N/A
#SHANIKO 4NW    N/A         45  39  79  SW1     30.27S
#TYGH VALLEY 2NEN/A         45  39  79  CALM    30.27S
#WAPANITIA AIRPON/A         43  39  86  CALM    30.28S
#WASCO DOT      N/A         43  40  89  E2      N/A
#WASCO 5NE      N/A         44  40  86  CALM    30.27R
$$

ORZ511-271310-
CENTRAL OREGON

CITY            SKY/WX      TMP DP  RH  WIND    PRES   REMARKS
BEND AIRPORT    PTCLDY      37  36  96  SE6     30.28S
MADRAS AIRPORT  PTCLDY      39  37  92  S5      30.29F
PRINEVILLE AP   CLEAR       32  32  100 CALM    30.29S
REDMOND AIRPORT PTCLDY      34  32  92  CALM    30.29S
6HR MIN TEMP:   33; 6HR MAX TEMP:   45;

#BEND 1SW       N/A         40  37  89  CALM    N/A
#BEND-AWBREY    N/A         42  38  86  S3      30.29S
#BEND-KIM LN    N/A         43  40  89  SW3     30.25F
#CROOKED RVR RANN/A         40  37  89  CALM    30.28F
#CULVER         N/A         41  37  86  CALM    30.24S
#LAKE BILLY CHINN/A         45  36  70  CALM    30.33S
#POWELL BUTTE 3EN/A         36  33  89  SE1     N/A
#POWELL BUTTE   N/A         40  34  79  SW2     29.89S
#PRINEVILLE 3N  N/A         37  34  89  E2      30.27S
#WARM SPRINGS   N/A         45  40  82  CALM    30.24S

$$


ORZ509-271310-
EAST SLOPES OF OREGON CASCADES

CITY            SKY/WX      TMP DP  RH  WIND    PRES   REMARKS
#BLUE BOX PASS  N/A         41  -10 11  CALM    N/A
#CAMP SHERMAN   N/A         32  29  89  CALM    30.34R
#LA PINE 4NW    N/A         29  26  88  CALM    30.37R
#SISTERS AIRPOR N/A         34  34  100 CALM    30.17S
#SISTERS ODOT   N/A         34  N/A N/A CALM    N/A
#SISTERS 3N     N/A         34  28  78  CALM    30.28S
#SUNRIVER       N/A         32  30  92  CALM    30.20S
#TUMALO 3W      N/A         42  38  86  S6      30.17S
#WANOGA BUTTE D N/A         38  33  82  W5      N/A

$$

ORZ044-271310-
LOWER COLUMBIA BASIN...OREGON

CITY            SKY/WX      TMP DP  RH  WIND    PRES   REMARKS
HERMISTON       CLOUDY      44  34  68  SE5     30.28R
6HR MIN TEMP:   38; 6HR MAX TEMP:   52;

#BOARDMAN 8SW   N/A         47  38  71  SW5     30.27S
#IONE SCHOOL    N/A         44  29  55  CALM    30.24S
#IRRIGON 4NW    N/A         49  37  63  E6      N/A
#UMATILLA SCHOOLN/A         43  38  82  S2      30.31R
#UMATILLA       N/A         48  33  56  E3      30.21R
$$

ORZ507-271310-
NORTHERN FOOTHILLS OF THE BLUES

CITY            SKY/WX      TMP DP  RH  WIND    PRES   REMARKS
PENDLETON AIRPT CLOUDY      42  27  55  SE9     30.28S
6HR MIN TEMP:   38; 6HR MAX TEMP:   46;

#ADAMS 3WNW     N/A         35  28  75  CALM    30.32S
#CAYUSE         N/A         44  28  53  E12     30.28F WCI 38
#HELIX SCHOOL   N/A         35  29  78  CALM    30.31F
#HELIX 3N       N/A         44  25  47  N9      30.23S
#HOLDMAN 6E     N/A         44  27  51  CALM    30.10S
#M-F FERNDALE   N/A         49  29  46  CALM    30.26S
#M-F GROVE ELEM N/A         46  27  47  CALM    30.25F
#M-FREEWATER 5SEN/A         46  29  51  E7      30.27S
#PENDLETON DNTN N/A         38  23  54  CALM    30.28F
#PDT AQUATIC CTRN/A         38  21  50  E3      30.27S
#PENDLETON 5NE  N/A         36  29  75  CALM    30.24F
#PDT SUNRIDGE   N/A         33  28  82  CALM    30.31S
#PENDLETON 7NW  N/A         42  30  62  E7      30.27F
#PILOT ROCK     N/A         44  27  51  E7      30.29F
#TUTUILLA       N/A         34  29  82  CALM    30.29F
#UMAPINE 2E     N/A         48  33  56  E5      30.25S
#WESTON SCHOOL  N/A         48  20  33  S2      30.26S

$$

ORZ508-271310-
SOUTHERN FOOTHILLS OF THE BLUES

CITY            SKY/WX      TMP DP  RH  WIND    PRES   REMARKS
LEXINGTON       CLEAR       46  32  58  SE10    30.30R
#AJAX           N/A         46  35  65  CALM    30.18F
#CONDON SCHOOL  N/A         43  34  70  CALM    30.23R
#CONDON 5W      N/A         45  36  70  SW3     30.24S
#FOSSIL SCHOOL  N/A         38  32  79  CALM    30.24S
#HEPPNER EOC    N/A         43  32  65  SE7     30.22S
#HEPPNER 4NE    N/A         45  33  63  SE7     30.29S
#LEXINGTON 2SE  N/A         45  33  63  S3      30.25R
#MIKKALO        N/A         45  37  73  S3      30.26S
#RUGGS 5NE      N/A         39  26  59  SE1     30.43S
#RUGGS 2SW      N/A         42  31  65  CALM    30.31S

$$

ORZ502-503-271310-
BLUE MOUNTAINS

CITY            SKY/WX      TMP DP  RH  WIND    PRES   REMARKS
MEACHAM         CLEAR       26  22  85  CALM    30.29S
6HR MIN TEMP:   26; 6HR MAX TEMP:   30;

#BATTLE MTN DOT N/A         34  31  89  S2      N/A
#HEPPNER 15SE   N/A         34  30  85  CALM    30.20S
#LADD CYN SMT   N/A         27  21  78  CALM    N/A
#LADD CREEK ODOTN/A         31  24  75  S5      N/A
#LONG CREEK HS  N/A         34  31  89  CALM    30.26R
#N POWDER DOT   N/A         26  24  92  W5      N/A
#PIKES PEAK     N/A         48  16  27  S3      27.99S
#TOLLGATE       N/A         34  25  69  CALM    30.18R
#TROY SCHOOL    N/A         35  31  85  CALM    30.23R
#UKIAH          N/A         27  25  92  CALM    30.42R
#WESTON 4E      N/A         41  26  55  SE6     30.26S
$$

ORZ505-271310-
JOHN DAY BASIN

CITY            SKY/WX      TMP DP  RH  WIND    PRES   REMARKS
JOHN DAY        CLEAR       37  27  67  E10     30.31R
#JOHN DAY KJDY  N/A         34  29  82  NE2     30.25F
#DAYVILLE SCHOOLN/A         38  29  70  CALM    30.27R
#MITCHELL       N/A         39  36  89  E7      30.40S
#MONUMENT HS    N/A         35  27  72  NE1     30.31R
#MT. VERNON 5SE N/A         36  26  67  CALM    30.25S
#WINLOCK        N/A         38  29  70  CALM    30.36R
$$

ORZ506-271310-
OCHOCO AND JOHN DAY HIGHLANDS

CITY            SKY/WX      TMP DP  RH  WIND    PRES   REMARKS
#BUCK CREEK DOT N/A         42  42  100 S2      N/A
#HORSE RIDGE DO N/A         31  28  88  N1      N/A
#KEYES SMT DOT  N/A         38  32  79  N2      N/A
#PAULINA SCHOOL N/A         39  33  79  CALM    30.23R
#PINE MTN OBS   N/A         39  35  85  CALM    N/A
#PRAIRIE CITY   N/A         26  23  88  CALM    30.53S
#SENECA         N/A         26  N/A N/A CALM    N/A
#SENECA 9NW     N/A         25  21  84  CALM    30.35S
$$

ORZ049-271310-
GRANDE RONDE VALLEY

CITY            SKY/WX      TMP DP  RH  WIND    PRES   REMARKS
LA GRANDE       CLEAR       30  18  60  CALM    30.32R
#COVE SCHOOL    N/A         31  26  81  CALM    30.27S
#ELGIN 3N       N/A         26  19  74  CALM    30.29R
#ELGIN 1E       N/A         30  24  78  CALM    N/A
#IMBLER SCHOOL  N/A         41  27  57  CALM    30.27R
#ISLAND CITY 4N N/A         52  51  96  CALM    30.26F
#LADD CYN DOT   N/A         36  23  59  SE8     N/A
#LA GRANDE ELEM N/A         35  26  69  CALM    30.32R
#UNION 1S       N/A         31  25  78  CALM    30.27R
$$

ORZ050-271310-
WALLOWA COUNTY

CITY            SKY/WX      TMP DP  RH  WIND    PRES   REMARKS
#ENTERPRISE HS  N/A         26  22  85  CALM    30.32R
#IMNAHA SCHOOL  N/A         35  30  82  S1      30.34R
#JOSEPH 3N      N/A         25  17  71  CALM    30.30R
#JOSEPH 3W      N/A         32  14  47  SW2     30.11R
#LOSTINE        N/A         26  21  81  CALM    30.19R
#MT HOWARD 8000 N/A         29  -4  23  W3      30.26R
#PROMISE 1S     N/A         32  27  82  CALM    30.44R
#SHEEP RDG 7000 N/A         33   3  27  CALM    30.42R
#WALLOWA SCHOOL N/A         26  22  85  CALM    31.36R



$$



USA.gov is the U.S. government's official web portal to all federal, state and local government web resources and services.